GW7113 Weather Reports


time (UTC)temp
C
wind
direction
speed
KPH
gust
KPH
rain 1hr
cm
rain 24hr
cm
rain mn
cm
humidity
%
barometer
mb
20260507023048 14 37 9.7 17.7 0.00 1.02 2.11 95 1015.8
20260507022543 14 23 14.5 17.7 0.00 1.02 2.11 95 1016.0
20260507022031 14 13 9.7 17.7 0.00 1.02 2.11 95 1016.1
20260507021531 14 353 8.0 16.1 0.00 1.02 2.11 95 1016.5
20260507021031 14 7 9.7 14.5 0.00 1.02 2.11 95 1016.5
20260507020530 14 20 6.4 14.5 0.00 1.02 2.11 95 1016.3
20260507020031 14 357 4.8 12.9 0.00 1.02 2.11 95 1016.0
20260507015531 14 351 6.4 12.9 0.00 1.02 2.11 95 1015.9
20260507015247 14 352 4.8 11.3 0.00 1.02 2.11 95 1016.0
20260507014531 14 350 4.8 16.1 0.00 1.02 2.11 94 1016.0
20260507014031 14 5 6.4 16.1 0.00 1.02 2.11 94 1015.9
20260507013531 14 340 6.4 14.5 0.00 1.02 2.11 94 1015.6
20260507013031 14 349 4.8 14.5 0.00 1.02 2.11 94 1015.5
20260507012531 14 342 6.4 16.1 0.00 1.02 2.11 94 1015.3
20260507012031 14 52 6.4 16.1 0.00 1.02 2.11 94 1015.4
20260507011531 14 22 9.7 16.1 0.00 1.02 2.11 94 1015.2
20260507011031 14 7 8.0 16.1 0.00 1.02 2.11 94 1015.1
20260507010752 14 22 6.4 16.1 0.00 1.02 2.11 94 1015.0
20260507010031 14 354 6.4 16.1 0.00 1.02 2.11 94 1015.1
20260507005530 14 2 8.0 16.1 0.00 1.02 2.11 94 1014.8
20260507005248 14 17 6.4 17.7 0.00 1.02 2.11 94 1014.8
20260507004531 14 357 12.9 17.7 0.00 1.02 2.11 94 1014.9
20260507004249 14 4 6.4 12.9 0.00 1.02 2.11 94 1014.8
20260507003530 14 5 9.7 16.1 0.00 1.02 2.11 93 1015.1
20260507003030 14 344 6.4 16.1 0.00 1.02 2.11 93 1014.9
20260507002530 15 5 9.7 22.5 0.00 1.02 2.11 93 1014.8
20260507002031 15 356 6.4 22.5 0.00 1.02 2.11 93 1014.8
20260507001531 15 342 9.7 16.1 0.00 1.02 2.11 93 1014.4
20260507001032 15 358 6.4 20.9 0.00 1.02 2.11 92 1014.4
20260507000751 15 16 9.7 24.1 0.00 1.02 2.11 92 1014.5
20260507000031 15 5 9.7 24.1 0.00 1.02 2.11 92 1014.3
20260506235531 15 5 11.3 20.9 0.00 1.02 2.11 92 1014.3
20260506235031 15 347 12.9 20.9 0.00 1.02 2.11 92 1014.3
20260506234749 15 332 6.4 20.9 0.00 1.02 2.11 92 1014.1
20260506234031 15 338 16.1 17.7 0.00 1.02 2.11 92 1014.2
20260506233752 15 352 3.2 24.1 0.00 1.02 2.11 92 1014.5
20260506233030 15 328 6.4 24.1 0.00 1.02 2.11 92 1014.3
20260506232530 15 3 14.5 24.1 0.00 1.02 2.11 92 1014.1
20260506232031 15 3 9.7 27.4 0.00 1.02 2.11 92 1014.1
20260506231531 15 348 16.1 27.4 0.00 1.02 2.11 92 1014.1
20260506231031 15 358 16.1 20.9 0.00 1.02 2.11 92 1014.0
20260506230750 15 13 9.7 17.7 0.00 1.02 2.11 92 1014.8
20260506230030 15 345 6.4 27.4 0.00 1.02 2.11 91 1014.9
20260506225530 15 326 12.9 27.4 0.00 1.02 2.11 91 1014.4
20260506224530 15 35 6.4 22.5 0.00 1.02 2.11 92 1014.0
20260506224030 15 0 14.5 20.9 0.00 1.02 2.11 91 1014.3
20260506223530 15 1 9.7 17.7 0.00 1.02 2.11 91 1014.2
20260506223030 15 324 8.0 20.9 0.00 1.02 2.11 91 1014.3
20260506222530 15 345 11.3 20.9 0.00 1.02 2.11 92 1014.2
20260506222031 15 1 9.7 22.5 0.00 1.02 2.11 91 1014.4
20260506221753 15 338 9.7 22.5 0.00 1.02 2.11 92 1014.2
20260506221031 15 343 8.0 22.5 0.00 1.02 2.11 92 1014.2
20260506220531 15 2 9.7 25.7 0.00 1.02 2.11 92 1014.1
20260506220030 15 320 9.7 25.7 0.00 1.02 2.11 92 1014.4
20260506215530 15 339 16.1 25.7 0.00 1.02 2.11 92 1014.1
20260506215030 15 314 12.9 24.1 0.00 1.02 2.11 93 1014.2
20260506214531 15 29 9.7 24.1 0.00 1.02 2.11 93 1013.8
20260506214019 15 338 16.1 25.7 0.00 1.02 2.11 93 1014.0
20260506213519 15 334 17.7 25.7 0.00 1.02 2.11 93 1014.2
20260506213019 15 21 9.7 25.7 0.00 1.02 2.11 93 1014.3
20260506212519 15 347 9.7 30.6 0.00 1.02 2.11 93 1014.1
20260506212019 15 347 12.9 30.6 0.00 1.02 2.11 93 1014.2
20260506211519 15 6 16.1 29.0 0.00 1.02 2.11 93 1014.5
20260506211018 15 6 9.7 29.0 0.00 1.02 2.11 94 1014.5
20260506210519 15 306 14.5 27.4 0.00 1.02 2.11 93 1014.5
20260506210018 15 338 17.7 27.4 0.00 1.02 2.11 94 1014.5
20260506205019 15 330 11.3 30.6 0.00 1.02 2.11 93 1014.3
20260506204519 15 299 17.7 27.4 0.00 1.02 2.11 93 1014.4
20260506204018 15 343 17.7 27.4 0.00 1.02 2.11 93 1014.4
20260506203507 15 7 12.9 27.4 0.00 1.02 2.11 93 1014.7
20260506203007 15 356 8.0 25.7 0.00 1.02 2.11 92 1014.7
20260506202507 15 311 16.1 29.0 0.00 1.02 2.11 92 1014.5
20260506202006 15 312 16.1 29.0 0.00 1.02 2.11 92 1014.7
20260506201506 15 328 11.3 24.1 0.00 1.02 2.11 92 1014.7
20260506201006 15 18 11.3 25.7 0.00 1.02 2.11 93 1014.7
20260506200506 15 337 17.7 30.6 0.00 1.02 2.11 93 1014.8
20260506200011 15 6 12.9 30.6 0.00 1.02 2.11 93 1014.9
20260506195506 15 350 12.9 29.0 0.00 1.02 2.11 93 1014.9
20260506195006 15 321 12.9 29.0 0.00 1.02 2.11 93 1015.0
20260506194507 15 324 11.3 27.4 0.00 1.02 2.11 94 1014.8
20260506194007 15 311 14.5 25.7 0.00 1.02 2.11 94 1014.5
20260506193729 15 335 12.9 25.7 0.00 1.02 2.11 94 1014.8
20260506193228 14 320 14.5 25.7 0.00 1.02 2.11 94 1014.5
20260506192507 14 317 9.7 25.7 0.00 1.02 2.11 93 1014.9
20260506192212 15 315 14.5 27.4 0.00 1.02 2.11 93 1015.1
20260506191455 15 335 17.7 27.4 0.00 1.02 2.11 93 1014.9
20260506190955 15 313 17.7 27.4 0.00 1.02 2.11 93 1014.7
20260506190715 15 20 9.7 27.4 0.00 1.02 2.11 93 1014.8
20260506185954 15 341 12.9 30.6 0.00 1.02 2.11 94 1015.0
20260506185454 15 322 16.1 35.4 0.00 1.02 2.11 93 1015.0
20260506184954 15 352 22.5 35.4 0.00 1.02 2.11 93 1015.0
20260506184454 15 338 14.5 29.0 0.00 1.02 2.11 93 1015.0
20260506183954 15 292 17.7 29.0 0.00 1.02 2.11 93 1015.0
20260506183455 15 329 14.5 29.0 0.00 1.02 2.11 93 1015.0
20260506182955 16 318 20.9 30.6 0.00 1.02 2.11 92 1015.0
20260506182720 16 2 20.9 30.6 0.00 1.02 2.11 92 1014.9
20260506181955 16 337 22.5 29.0 0.00 1.02 2.11 92 1014.9
20260506181455 16 346 14.5 27.4 0.00 1.02 2.11 92 1014.8
20260506180955 16 13 12.9 27.4 0.00 1.02 2.11 92 1014.8
20260506180455 16 322 9.7 25.7 0.00 1.02 2.11 93 1014.9
20260506175955 16 277 16.1 30.6 0.00 1.02 2.11 93 1015.0
20260506175727 16 335 16.1 30.6 0.00 1.02 2.11 92 1015.0
20260506175220 17 219 20.9 29.0 0.00 1.02 2.11 91 1015.8
20260506174455 17 317 16.1 29.0 0.00 1.02 2.11 91 1015.2
20260506173955 18 333 17.7 29.0 0.00 1.02 2.11 92 1015.0
20260506173455 19 334 6.4 27.4 0.00 1.02 2.11 91 1014.9
20260506172955 20 333 19.3 27.4 0.00 1.02 2.11 91 1014.8
20260506172455 21 332 8.0 20.9 0.00 1.02 2.11 93 1014.8
20260506171955 21 8 14.5 17.7 0.00 1.02 2.11 94 1014.4
20260506171455 21 7 8.0 16.1 0.00 1.02 2.11 95 1014.2
20260506171221 21 357 6.4 14.5 0.00 1.02 2.11 95 1014.3
20260506170454 21 359 9.7 16.1 0.00 1.02 2.11 96 1014.3
20260506165954 21 353 6.4 16.1 0.00 1.02 2.11 97 1014.3
20260506165454 20 317 6.4 16.1 0.00 1.02 2.11 98 1014.3
20260506165214 19 356 6.4 16.1 0.00 1.02 2.11 97 1014.3
20260506164455 18 13 4.8 16.1 0.00 1.02 2.11 98 1014.3
20260506163955 18 3 6.4 20.9 0.00 1.02 2.11 98 1014.2
20260506163454 17 344 14.5 20.9 0.00 1.02 2.11 98 1014.5
20260506162955 16 355 3.2 20.9 0.00 1.02 2.11 97 1013.7
20260506162454 16 136 9.7 20.9 0.03 1.02 2.11 97 1013.6
20260506161954 16 103 9.7 17.7 0.13 1.02 2.11 98 1013.6
20260506161719 15 82 8.0 22.5 0.43 1.02 2.11 97 1013.5
20260506160955 15 90 6.4 22.5 1.02 1.02 2.11 97 1013.6
20260506160455 15 89 14.5 16.1 1.02 1.02 2.11 97 1013.7
20260506155955 15 91 6.4 14.5 1.02 1.02 2.11 97 1013.6
20260506155455 16 83 6.4 11.3 1.02 1.02 2.11 97 1013.8
20260506154954 15 66 4.8 16.1 1.02 1.02 2.11 98 1013.8
20260506154454 15 334 4.8 16.1 1.02 1.02 2.11 98 1013.6
20260506153954 15 331 1.6 16.1 1.02 1.02 2.11 98 1013.7
20260506153454 14 283 8.0 16.1 1.02 1.02 2.11 98 1014.2
20260506153214 13 73 8.0 16.1 0.99 0.99 2.08 98 1013.9
20260506152455 13 318 6.4 33.8 0.99 0.99 2.08 97 1014.1
20260506151955 13 315 11.3 49.9 0.89 0.89 2.01 97 1014.2
20260506151714 13 359 24.1 49.9 0.58 0.58 1.78 96 1013.8
20260506150955 15 294 27.4 0.0 0.00 0.00 1.09 96 1016.1
20260506150153 16 270 32.2 57.9 0.81 0.94 1.04 97 1015.8
20260506145658 16 245 25.7 33.8 0.76 0.89 0.89 96 1013.0
20260506145153 16 44 17.7 25.7 0.76 0.89 0.89 96 1011.0
20260506144652 16 65 17.7 30.6 0.36 0.48 0.58 96 1012.3
20260506144153 17 12 14.5 40.2 0.08 0.20 0.20 95 1012.9
20260506143913 17 348 22.5 40.2 0.03 0.15 0.15 95 1013.4
20260506143153 18 327 19.3 37.0 0.00 0.13 0.13 94 1013.8
20260506142652 21 327 22.5 37.0 0.00 0.13 0.13 96 1013.9
20260506142153 21 359 3.2 6.4 0.00 0.13 0.13 97 1013.3
20260506141652 21 159 1.6 9.7 0.00 0.13 0.13 97 1013.3
20260506141153 21 159 0.0 16.1 0.03 0.13 0.13 97 1013.3
20260506140910 21 182 4.8 16.1 0.03 0.13 0.13 97 1013.1
20260506140153 22 182 8.0 17.7 0.03 0.13 0.13 97 1012.5
20260506135653 22 100 9.7 17.7 0.03 0.13 0.13 97 1012.4
20260506135152 22 108 12.9 14.5 0.03 0.13 0.13 97 1012.5
20260506134652 21 92 4.8 14.5 0.03 0.13 0.13 97 1012.4
20260506134153 21 121 11.3 16.1 0.03 0.13 0.13 97 1012.0
20260506133652 21 110 12.9 16.1 0.03 0.13 0.13 97 1011.7
20260506133152 21 80 8.0 14.5 0.05 0.13 0.13 97 1012.0
20260506132653 21 58 6.4 12.9 0.05 0.13 0.13 97 1011.5
20260506132153 21 87 3.2 12.9 0.05 0.13 0.13 97 1011.1
20260506131652 21 66 6.4 11.3 0.05 0.13 0.13 97 1011.4
20260506131419 21 54 6.4 11.3 0.05 0.10 0.10 97 1011.6
20260506130653 21 38 4.8 9.7 0.05 0.10 0.10 97 1011.7
20260506130411 21 81 3.2 6.4 0.05 0.10 0.10 97 1011.7
20260506125652 21 66 3.2 9.7 0.08 0.10 0.10 97 1011.8
20260506125153 21 71 4.8 9.7 0.08 0.10 0.10 97 1011.5
20260506124653 21 77 3.2 9.7 0.05 0.10 0.10 97 1011.4
20260506124153 21 75 3.2 6.4 0.08 0.10 0.10 97 1011.3
20260506123653 21 72 4.8 6.4 0.08 0.10 0.10 97 1011.3
20260506123413 21 107 1.6 3.2 0.08 0.10 0.10 96 1011.2
20260506122653 21 148 1.6 3.2 0.10 0.10 0.10 96 1011.2
20260506122412 21 159 0.0 1.6 0.08 0.08 0.08 96 1011.2
20260506121653 21 159 0.0 1.6 0.08 0.08 0.08 96 1011.2
20260506121153 21 159 0.0 3.2 0.08 0.08 0.08 96 1011.4
20260506120909 21 159 0.0 3.2 0.05 0.05 0.05 96 1011.4
20260506120153 21 157 0.0 3.2 0.05 0.05 0.05 96 1011.3
20260506115653 21 161 0.0 4.8 0.05 0.05 0.05 96 1011.2
20260506115152 21 135 3.2 4.8 0.05 0.05 0.05 96 1011.0
20260506114652 21 142 0.0 4.8 0.05 0.05 0.05 96 1011.2
20260506114419 21 142 0.0 4.8 0.03 0.03 0.03 96 1011.1
20260506113654 21 166 1.6 3.2 0.03 0.03 0.03 96 1011.1
20260506113153 21 173 1.6 1.6 0.00 0.00 0.00 96 1011.1
20260506112653 21 173 0.0 1.6 0.00 0.00 0.00 96 1011.3
20260506112153 21 173 0.0 4.8 0.00 0.00 0.00 96 1011.2
20260506111912 21 174 0.0 9.7 0.00 0.00 0.00 96 1011.1
20260506111152 21 171 3.2 12.9 0.00 0.00 0.00 97 1011.3
20260506110652 21 161 3.2 12.9 0.00 0.00 0.00 97 1011.1
20260506110153 21 167 8.0 12.9 0.00 0.00 0.00 97 1011.1
20260506105653 21 188 9.7 12.9 0.00 0.00 0.00 96 1011.1
20260506105153 21 135 8.0 9.7 0.00 0.00 0.00 96 1011.1
20260506104652 21 113 3.2 11.3 0.00 0.00 0.00 96 1011.0
20260506104153 21 113 3.2 11.3 0.00 0.00 0.00 96 1010.8
20260506103653 21 129 3.2 16.1 0.00 0.00 0.00 96 1010.8
20260506103152 21 146 6.4 16.1 0.00 0.00 0.00 96 1010.7
20260506102652 21 171 9.7 14.5 0.00 0.00 0.00 96 1010.8
20260506102152 21 175 8.0 16.1 0.00 0.00 0.00 96 1011.0
20260506101652 21 158 6.4 17.7 0.00 0.00 0.00 96 1011.0
20260506101417 21 169 9.7 17.7 0.00 0.00 0.00 96 1011.0
20260506100654 21 145 9.7 20.9 0.00 0.00 0.00 96 1011.1
20260506100153 21 155 9.7 20.9 0.00 0.00 0.00 96 1010.8
20260506095653 21 143 14.5 20.9 0.00 0.00 0.00 96 1010.5
20260506095153 21 144 14.5 22.5 0.00 0.00 0.00 96 1010.6
20260506094923 21 168 9.7 22.5 0.00 0.00 0.00 96 1010.5
20260506094152 21 142 14.5 17.7 0.00 0.00 0.00 96 1010.5
20260506093653 21 182 11.3 17.7 0.00 0.00 0.00 95 1010.5
20260506093153 21 167 8.0 29.0 0.00 0.00 0.00 95 1010.5
20260506092653 21 137 11.3 29.0 0.00 0.00 0.00 95 1010.5
20260506092153 21 160 11.3 27.4 0.00 0.00 0.00 95 1010.5
20260506091914 21 163 16.1 30.6 0.00 0.00 0.00 95 1010.4
20260506091152 21 142 16.1 30.6 0.00 0.00 0.00 95 1010.1
20260506090657 21 168 12.9 33.8 0.00 0.00 0.00 95 1010.1
20260506090411 22 188 11.3 33.8 0.00 0.00 0.00 95 1010.0
20260506085653 22 141 22.5 30.6 0.00 0.00 0.00 95 1010.0
20260506085154 22 176 20.9 27.4 0.00 0.00 0.00 95 1010.1
20260506084652 22 163 9.7 27.4 0.00 0.00 0.00 95 1010.2
20260506084152 22 168 20.9 27.4 0.00 0.00 0.00 95 1010.2
20260506083652 22 156 14.5 33.8 0.00 0.00 0.00 94 1010.0
20260506082652 22 173 14.5 29.0 0.00 0.00 0.00 95 1010.0
20260506082152 22 170 9.7 24.1 0.00 0.00 0.00 95 1010.0
20260506081653 22 155 14.5 24.1 0.00 0.00 0.00 94 1009.9
20260506081153 22 134 14.5 27.4 0.00 0.00 0.00 94 1010.0
20260506080917 22 160 16.1 27.4 0.00 0.00 0.00 94 1009.9
20260506080152 22 154 17.7 30.6 0.00 0.00 0.00 94 1010.1
20260506073153 22 157 17.7 37.0 0.00 0.00 0.00 94 1010.0
20260506072653 22 181 16.1 40.2 0.00 0.00 0.00 94 1010.3
20260506072411 22 145 24.1 40.2 0.00 0.00 0.00 94 1010.1
20260506071912 22 176 22.5 43.5 0.00 0.00 0.00 93 1010.1
20260506071153 22 164 24.1 43.5 0.00 0.00 0.00 93 1010.2
20260506070652 22 139 19.3 40.2 0.00 0.00 0.00 94 1010.2
20260506070152 22 160 20.9 40.2 0.00 0.00 0.00 94 1010.2
20260506062153 22 197 17.7 38.6 0.00 0.00 0.00 94 1010.3
20260506061653 22 151 17.7 38.6 0.00 0.00 0.00 93 1010.0
20260506061153 22 162 19.3 37.0 0.00 0.00 0.00 93 1010.0
20260506060652 22 152 24.1 37.0 0.00 0.00 0.00 94 1010.3
20260506060154 22 157 20.9 37.0 0.00 0.00 0.00 94 1010.2
20260506051152 22 156 12.9 22.5 0.00 0.00 0.00 92 1010.3
20260506050653 22 155 12.9 24.1 0.00 0.00 0.00 92 1010.5
20260506050153 22 143 14.5 24.1 0.00 0.00 0.00 92 1010.4
20260506044652 22 175 17.7 27.4 0.00 0.00 0.00 91 1010.2
20260506044152 22 159 12.9 27.4 0.00 0.00 0.00 91 1010.3
20260506043925 22 162 16.1 24.1 0.00 0.00 0.00 91 1010.4
20260506043153 22 149 11.3 24.1 0.00 0.00 0.00 90 1010.1
20260506042652 22 134 14.5 27.4 0.00 0.00 0.00 90 1010.3
20260506042412 22 186 9.7 27.4 0.00 0.00 0.00 90 1010.3
20260506041913 22 159 16.1 24.1 0.00 0.00 0.00 90 1010.3
20260506041153 22 178 17.7 27.4 0.00 0.00 0.00 89 1010.2
20260506040653 22 168 12.9 27.4 0.00 0.00 0.00 89 1010.1
20260506040152 22 169 17.7 24.1 0.00 0.00 0.00 89 1010.2
20260506035152 23 184 14.5 24.1 0.00 0.00 0.00 88 1010.1
20260506034911 23 195 14.5 24.1 0.00 0.00 0.00 88 1010.1
20260506034153 23 182 14.5 24.1 0.00 0.00 0.00 88 1010.2
20260506033913 23 164 14.5 24.1 0.00 0.00 0.00 87 1010.0
20260506033153 23 155 14.5 20.9 0.00 0.00 0.00 87 1010.2
20260506032653 23 164 12.9 20.9 0.00 0.00 0.00 87 1010.0
20260506032153 23 175 16.1 20.9 0.00 0.00 0.00 87 1010.1
20260506031653 23 158 11.3 24.1 0.00 0.00 0.00 86 1009.9
20260506031152 23 150 11.3 24.1 0.00 0.00 0.00 86 1009.8
20260506030911 23 182 12.9 24.1 0.00 0.00 0.00 86 1009.7
20260506030408 23 173 14.5 22.5 0.00 0.00 0.00 86 1009.7
20260506025914 23 150 14.5 20.9 0.00 0.00 0.00 85 1009.8
20260506025153 23 153 11.3 17.7 0.00 0.00 0.00 85 1009.7
20260506024923 23 169 11.3 20.9 0.00 0.00 0.00 84 1009.7
20260506024153 23 161 12.9 20.9 0.00 0.00 0.00 84 1009.4
20260506023652 23 156 12.9 22.5 0.00 0.00 0.00 83 1009.5
20260506023412 23 176 12.9 22.5 0.00 0.00 0.00 83 1009.3